This demonstration page uses our WeatherBlox Daily Observations layout. Learn more.

Left ArrowRight Arrow

Hourly Observations for December 8, 2022

Temp ( °F °C ) Dew Point ( °F °C ) Humidity (%) Winds ( mph kmh ) Pressure ( in mb ) Visibility ( mi km ) Precip ( " mm )
12:51 am 00:51 Clear 53 11.7 47 8.3 80 80 NW 12 19 30.11 1020 10 16 0.00 0.00
1:51 am 01:51 Clear 53 11.7 45 7.2 74 74 NNW 9 15 30.13 1020 10 16 0.00 0.00
2:51 am 02:51 Clear 51 10.6 43 6.1 74 74 NW 8 13 30.14 1021 10 16 0.00 0.00
3:51 am 03:51 Clear 50 10 43 6.1 77 77 NNW 8 13 30.14 1021 10 16 0.00 0.00
4:51 am 04:51 Clear 49 9.4 41 5 74 74 NNW 9 15 30.15 1021 10 16 0.00 0.00
5:51 am 05:51 Clear 48 8.9 41 5 76 76 NNW 7 11 30.18 1022 10 16 0.00 0.00
6:51 am 06:51 Clear 47 8.3 40 4.4 76 76 NNW 6 9 30.20 1023 10 16 0.00 0.00
7:51 am 07:51 Sunny 48 8.9 40 4.4 73 73 NNW 7 11 30.22 1023 10 16 0.00 0.00
8:51 am 08:51 Sunny 49 9.4 39 3.9 68 68 N 8 13 30.23 1024 10 16 0.00 0.00
9:51 am 09:51 Sunny 51 10.6 38 3.3 61 61 N 9 15 30.23 1024 10 16 0.00 0.00
10:51 am 10:51 Sunny 51 10.6 36 2.2 56 56 N 10 17 30.21 1023 10 16 0.00 0.00
11:51 am 11:51 Sunny 52 11.1 35 1.7 52 52 NNW 14 22 30.21 1023 10 16 0.00 0.00
12:51 pm 12:51 Sunny 52 11.1 37 2.8 57 57 NW 15 24 30.19 1022 10 16 0.00 0.00
1:51 pm 13:51 Sunny 52 11.1 36 2.2 54 54 NW 15 24 30.19 1022 10 16 0.00 0.00
2:51 pm 14:51 Sunny 51 10.6 36 2.2 56 56 NNW 8 13 30.18 1022 10 16 0.00 0.00
3:51 pm 15:51 Mostly Cloudy 50 10 36 2.2 58 58 NNW 13 20 30.18 1022 10 16 0.00 0.00
4:51 pm 16:51 Clear 48 8.9 36 2.2 63 63 NW 12 19 30.19 1022 10 16 0.00 0.00
5:51 pm 17:51 Clear 47 8.3 35 1.7 63 63 NNW 10 17 30.21 1023 10 16 0.00 0.00
6:51 pm 18:51 Mostly Clear 46 7.8 35 1.7 65 65 NNW 9 15 30.23 1024 10 16 0.00 0.00
7:51 pm 19:51 Clear 45 7.2 33 0.6 63 63 NNW 10 17 30.23 1024 10 16 0.00 0.00
8:51 pm 20:51 Clear 44 6.7 32 0 62 62 NNW 10 17 30.24 1024 10 16 0.00 0.00
9:51 pm 21:51 Clear 43 6.1 32 0 65 65 N 8 13 30.24 1024 10 16 0.00 0.00
10:51 pm 22:51 Clear 42 5.6 32 0 67 67 N 10 17 30.24 1024 10 16 0.00 0.00
11:51 pm 23:51 Clear 40 4.4 31 -0.6 70 70 N 6 9 30.26 1025 10 16 0.00 0.00

Powered by AerisWeather